• In India
  • List of Countries
  • For 7 days
  • Water Temperature
  • Satellite Maps
  • Weather Map
  • Weather Widgets
  • user-avatar
    Login

    Hourly Weather Piotrowice

    Today, 20 October, Saturday

    Time Temperature Precipitation Wind Pressure Humidity
    00:00 +8°C° 0 mm 2 mps 765 mmHg 87%
    01:00 +8°C° 0 mm 2 mps 765 mmHg 88%
    02:00 +8°C° 0 mm 2 mps 765 mmHg 88%
    03:00 +7°C° 0 mm 3 mps 765 mmHg 89%
    04:00 +7°C° 0 mm 3 mps 765 mmHg 89%
    05:00 +7°C° 0 mm 3 mps 765 mmHg 88%
    06:00 +8°C° 0 mm 3 mps 765 mmHg 87%
    07:00 +8°C° 0 mm 3 mps 765 mmHg 86%
    08:00 +8°C° 0.1 mm 4 mps 765 mmHg 82%
    09:00 +8°C° 0.1 mm 4 mps 765 mmHg 78%
    10:00 +10°C° 0.1 mm 4 mps 765 mmHg 74%
    11:00 +11°C° 0.1 mm 4 mps 765 mmHg 71%
    12:00 +11°C° 0.1 mm 4 mps 766 mmHg 69%
    13:00 +11°C° 0.1 mm 4 mps 766 mmHg 66%
    14:00 +10°C° 0.1 mm 5 mps 766 mmHg 68%
    15:00 +10°C° 0.1 mm 5 mps 765 mmHg 70%
    16:00 +10°C° 0.1 mm 5 mps 765 mmHg 73%
    17:00 +10°C° 0.2 mm 4 mps 765 mmHg 77%
    18:00 +8°C° 0.2 mm 4 mps 765 mmHg 82%
    19:00 +9°C° 0.2 mm 3 mps 765 mmHg 86%
    20:00 +8°C° 0 mm 3 mps 766 mmHg 88%
    21:00 +8°C° 0 mm 3 mps 766 mmHg 90%
    22:00 +8°C° 0 mm 3 mps 766 mmHg 92%
    23:00 +8°C° 0 mm 2 mps 766 mmHg 92%

    Tomorrow, 21 October, Sunday

    Time Temperature Precipitation Wind Pressure Humidity
    00:00 +8°C° 0 mm 2 mps 766 mmHg 93%
    01:00 +8°C° 0 mm 2 mps 766 mmHg 93%
    02:00 +8°C° 0 mm 2 mps 766 mmHg 93%
    03:00 +8°C° 0 mm 2 mps 766 mmHg 93%
    04:00 +7°C° 0 mm 2 mps 766 mmHg 93%
    05:00 +7°C° 0 mm 2 mps 766 mmHg 93%
    06:00 +7°C° 0 mm 2 mps 767 mmHg 93%
    07:00 +7°C° 0 mm 2 mps 767 mmHg 93%
    08:00 +9°C° 0 mm 2 mps 767 mmHg 88%
    09:00 +10°C° 0 mm 2 mps 767 mmHg 82%
    10:00 +13°C° 0 mm 2 mps 767 mmHg 76%
    11:00 +13°C° 0 mm 2 mps 767 mmHg 72%
    12:00 +14°C° 0 mm 2 mps 767 mmHg 67%
    13:00 +14°C° 0 mm 3 mps 767 mmHg 62%
    14:00 +13°C° 0 mm 3 mps 767 mmHg 65%
    15:00 +13°C° 0 mm 3 mps 767 mmHg 67%
    16:00 +12°C° 0 mm 3 mps 766 mmHg 69%
    17:00 +11°C° 0 mm 3 mps 766 mmHg 73%
    18:00 +10°C° 0 mm 3 mps 766 mmHg 77%
    19:00 +9°C° 0 mm 3 mps 766 mmHg 80%
    20:00 +9°C° 0 mm 3 mps 766 mmHg 81%
    21:00 +7°C° 0 mm 4 mps 766 mmHg 83%
    22:00 +7°C° 0 mm 4 mps 766 mmHg 84%
    23:00 +7°C° 0 mm 4 mps 766 mmHg 84%

    Day after tomorrow, 22 October, Monday

    Time Temperature Precipitation Wind Pressure Humidity
    00:00 +6°C° 0 mm 5 mps 765 mmHg 85%
    01:00 +6°C° 0 mm 5 mps 765 mmHg 85%
    02:00 +6°C° 0 mm 5 mps 765 mmHg 86%
    03:00 +6°C° 0 mm 5 mps 764 mmHg 87%
    04:00 +5°C° 0 mm 6 mps 764 mmHg 88%
    05:00 +5°C° 0 mm 6 mps 764 mmHg 87%
    06:00 +5°C° 0 mm 6 mps 764 mmHg 87%
    07:00 +5°C° 0 mm 6 mps 764 mmHg 87%
    08:00 +7°C° 0.2 mm 6 mps 764 mmHg 87%
    09:00 +7°C° 0.2 mm 6 mps 764 mmHg 87%
    10:00 +8°C° 0.2 mm 5 mps 764 mmHg 86%
    11:00 +8°C° 0.4 mm 6 mps 764 mmHg 86%
    12:00 +8°C° 0.4 mm 6 mps 764 mmHg 86%
    13:00 +9°C° 0.4 mm 6 mps 764 mmHg 86%
    14:00 +9°C° 0.2 mm 6 mps 764 mmHg 82%
    15:00 +9°C° 0.2 mm 6 mps 764 mmHg 77%
    16:00 +9°C° 0.2 mm 6 mps 764 mmHg 73%
    17:00 +8°C° 0 mm 6 mps 765 mmHg 72%
    18:00 +7°C° 0 mm 6 mps 765 mmHg 72%
    19:00 +7°C° 0 mm 6 mps 765 mmHg 71%
    20:00 +7°C° 0 mm 6 mps 765 mmHg 73%
    21:00 +6°C° 0 mm 5 mps 765 mmHg 75%
    22:00 +6°C° 0 mm 5 mps 765 mmHg 77%
    23:00 +6°C° 0 mm 5 mps 765 mmHg 79%

    23 October, Tuesday

    Time Temperature Precipitation Wind Pressure Humidity
    00:00 +6°C° 0 mm 5 mps 765 mmHg 80%
    01:00 +6°C° 0 mm 5 mps 765 mmHg 81%
    02:00 +6°C° 0.1 mm 5 mps 764 mmHg 80%
    03:00 +6°C° 0.1 mm 5 mps 764 mmHg 80%
    04:00 +5°C° 0.1 mm 6 mps 763 mmHg 79%
    05:00 +4°C° 0 mm 6 mps 762 mmHg 81%
    06:00 +4°C° 0 mm 7 mps 761 mmHg 82%
    07:00 +4°C° 0 mm 8 mps 760 mmHg 84%
    08:00 +3°C° 0.5 mm 9 mps 759 mmHg 84%
    09:00 +5°C° 0.5 mm 10 mps 758 mmHg 84%
    10:00 +4°C° 0.5 mm 11 mps 757 mmHg 84%
    11:00 +5°C° 1 mm 12 mps 756 mmHg 84%
    12:00 +5°C° 1 mm 12 mps 754 mmHg 84%
    13:00 +5°C° 1 mm 12 mps 753 mmHg 85%
    14:00 +7°C° 2.5 mm 12 mps 751 mmHg 86%
    15:00 +7°C° 2.5 mm 12 mps 750 mmHg 88%
    16:00 +8°C° 2.5 mm 12 mps 749 mmHg 89%
    17:00 +9°C° 2.4 mm 12 mps 747 mmHg 88%
    18:00 +9°C° 2.4 mm 13 mps 746 mmHg 88%
    19:00 +10°C° 2.4 mm 13 mps 745 mmHg 87%
    20:00 +10°C° 0.8 mm 13 mps 745 mmHg 83%
    21:00 +10°C° 0.8 mm 14 mps 745 mmHg 80%
    22:00 +10°C° 0.8 mm 14 mps 744 mmHg 76%
    23:00 +9°C° 0.3 mm 13 mps 745 mmHg 74%

    24 October, Wednesday

    Time Temperature Precipitation Wind Pressure Humidity
    00:00 +9°C° 0.3 mm 12 mps 746 mmHg 73%
    01:00 +8°C° 0.3 mm 11 mps 746 mmHg 71%
    02:00 +7°C° 0.1 mm 11 mps 747 mmHg 66%
    03:00 +7°C° 0.1 mm 11 mps 748 mmHg 60%
    04:00 +6°C° 0.1 mm 11 mps 749 mmHg 55%
    05:00 +4°C° 0 mm 11 mps 750 mmHg 55%
    06:00 +5°C° 0 mm 10 mps 751 mmHg 56%
    07:00 +3°C° 0 mm 10 mps 752 mmHg 56%
    08:00 +5°C° 0 mm 10 mps 752 mmHg 53%
    09:00 +5°C° 0 mm 10 mps 753 mmHg 50%
    10:00 +6°C° 0 mm 11 mps 753 mmHg 48%
    11:00 +7°C° 0 mm 10 mps 754 mmHg 46%
    12:00 +7°C° 0 mm 10 mps 754 mmHg 45%
    13:00 +7°C° 0 mm 10 mps 754 mmHg 44%
    14:00 +7°C° 0 mm 9 mps 754 mmHg 46%
    15:00 +6°C° 0 mm 8 mps 754 mmHg 48%
    16:00 +6°C° 0 mm 8 mps 755 mmHg 51%
    17:00 +6°C° 0 mm 7 mps 755 mmHg 53%
    18:00 +6°C° 0 mm 7 mps 755 mmHg 55%
    19:00 +5°C° 0 mm 6 mps 755 mmHg 57%
    20:00 +5°C° 0 mm 6 mps 755 mmHg 59%
    21:00 +6°C° 0 mm 5 mps 755 mmHg 61%
    22:00 +5°C° 0 mm 5 mps 755 mmHg 64%
    23:00 +5°C° 0 mm 4 mps 755 mmHg 67%

    25 October, Thursday

    Time Temperature Precipitation Wind Pressure Humidity
    00:00 +5°C° 0 mm 4 mps 754 mmHg 70%
    01:00 +5°C° 0 mm 4 mps 754 mmHg 73%
    02:00 +6°C° 0.1 mm 4 mps 754 mmHg 77%
    03:00 +6°C° 0.1 mm 5 mps 753 mmHg 82%
    04:00 +7°C° 0.1 mm 5 mps 753 mmHg 86%
    05:00 +8°C° 0.2 mm 6 mps 753 mmHg 86%
    06:00 +9°C° 0.2 mm 8 mps 753 mmHg 86%
    07:00 +10°C° 0.2 mm 9 mps 752 mmHg 86%
    08:00 +10°C° 0.1 mm 9 mps 752 mmHg 83%
    09:00 +9°C° 0.1 mm 10 mps 752 mmHg 79%
    10:00 +9°C° 0.1 mm 10 mps 752 mmHg 76%
    11:00 +9°C° 0.1 mm 10 mps 751 mmHg 78%
    12:00 +9°C° 0.1 mm 10 mps 751 mmHg 79%
    13:00 +9°C° 0.1 mm 10 mps 751 mmHg 81%
    14:00 +9°C° 0.2 mm 10 mps 751 mmHg 81%
    15:00 +11°C° 0.2 mm 11 mps 751 mmHg 81%
    16:00 +11°C° 0.2 mm 11 mps 751 mmHg 81%
    17:00 +11°C° 0.2 mm 11 mps 750 mmHg 81%
    18:00 +11°C° 0.2 mm 10 mps 750 mmHg 80%
    19:00 +11°C° 0.2 mm 10 mps 750 mmHg 79%
    20:00 +11°C° 0.3 mm 11 mps 750 mmHg 80%
    21:00 +11°C° 0.3 mm 11 mps 750 mmHg 82%
    22:00 +11°C° 0.3 mm 11 mps 750 mmHg 83%
    23:00 +9°C° 0.7 mm 11 mps 749 mmHg 83%
    Show more